Location: Newark
(45.2862°N, 9.8850°E)
Time: 01:54:54
(UTC+00:00)

N. Korean satellite - Pass Details

Date: 10 December 2019
Orbit: 454 x 507 km, 97.2° (Epoch: 23 January)

Event Time Altitude Azimuth Distance (km) Brightness Sun altitude
Rises 17:10:50 0° 199° (SSW) 2,601 10.8 -15.7°
Reaches altitude 10° 17:13:17 10° 215° (SW) 1,720 10.1 -16.1°
Maximum altitude 17:16:10 21° 266° (W) 1,179 9.5 -16.6°
Drops below altitude 10° 17:19:02 10° 317° (NW) 1,722 9.7 -17.1°
Sets 17:21:31 0° 334° (NNW) 2,605 10.4 -17.5°
